Location: Noverd
(38.0910°N, 121.6877°W)
Time: 14:20:54
(UTC+00:00)

Envisat - Pass Details

Date: 19 April 2026
Orbit: 761 x 762 km, 98.4° (Epoch: 15 May)

Event Time Altitude Azimuth Distance (km) Brightness Sun altitude
Rises 12:09:15 0° 352° (N) 3,230 6.5 -14.8°
Reaches altitude 10° 12:12:35 10° 329° (NNW) 2,299 5.4 -14.2°
Maximum altitude 12:15:13 14° 297° (WNW) 2,004 4.8 -13.8°
Enters shadow 12:16:34 13° 280° (W) 2,084 4.8 -13.5°
